This is the latest recevied weather packets stored in our database for station/object EA7OC-10. If no packets are shown the sender has not sent any weather packets the latest 10 day(s).
| Time | Temp. | Humidity | Pressure | Rain* | Wind** | Luminosity | Snow |
|---|---|---|---|---|---|---|---|
| 1788261772 | 42.78° C | 22% | 1018 hPa | - | - | - | - |
| 1788260872 | 42.78° C | 22% | 1018 hPa | - | - | - | - |
| 1788259972 | 41.11° C | 23% | 1018.2 hPa | - | - | - | - |
| 1788259072 | 40° C | 23% | 1018.4 hPa | - | - | - | - |
| 1788258172 | 39.44° C | 22% | 1018.5 hPa | - | - | - | - |
| 1788257272 | 40.56° C | 22% | 1018.6 hPa | - | - | - | - |
| 1788256372 | 40.56° C | 22% | 1018.7 hPa | - | - | - | - |
| 1788255471 | 40.56° C | 23% | 1018.6 hPa | - | - | - | - |
| 1788254571 | 39.44° C | 23% | 1018.5 hPa | - | - | - | - |
| 1788252784 | 38.33° C | 22% | 1018.6 hPa | - | - | - | - |
| 1788251884 | 37.78° C | 23% | 1018.6 hPa | - | - | - | - |
| 1788250984 | 37.22° C | 23% | 1018.5 hPa | - | - | - | - |
| 1788250084 | 36.67° C | 23% | 1018.4 hPa | - | - | - | - |
| 1788249184 | 35.56° C | 24% | 1018.3 hPa | - | - | - | - |
| 1788248284 | 33.33° C | 24% | 1018.1 hPa | - | - | - | - |
| 1788247384 | 30.56° C | 25% | 1018.2 hPa | - | - | - | - |
| 1788246484 | 27.78° C | 24% | 1018.2 hPa | - | - | - | - |
| 1788245584 | 25° C | 24% | 1017.8 hPa | - | - | - | - |
| 1788244683 | 23.89° C | 23% | 1017.6 hPa | - | - | - | - |
| 1788243782 | 22.22° C | 23% | 1017.5 hPa | - | - | - | - |
| 1788242882 | 22.22° C | 23% | 1017.3 hPa | - | - | - | - |
| 1788241982 | 22.22° C | 23% | 1017.1 hPa | - | - | - | - |
| 1788241082 | 22.22° C | 23% | 1016.8 hPa | - | - | - | - |
| 1788240182 | 22.22° C | 22% | 1016.9 hPa | - | - | - | - |
| 1788239282 | 22.22° C | 23% | 1016.9 hPa | - | - | - | - |
* Rain since midnight (hover to see other rain measurements)
** Current wind speed in m/s (hover to see current wind gust speed)